Temp
-5 -5 -5 -4 -5 -5 -5 -6 -5 -6 -6 -5 -5 -5 -5 -6 -6 -5 -6 -5 -5 -5 -6 -6 -6 -6 -7 -7 -7 -7 -6 -6 -6 -6 -6 -6 -6 -6 -6 -7 -7 -7 -6 -6 -6 -7 -7 -7 -7
-5 -5 -4 -5 -5 -4 -5 -5 -5 -6 -5 -6 -5 -5 -5 -6 -6 -5 -6 -6 -6 -5 -6 -6 -6 -6 -7 -7 -7 -6 -6 -6 -6 -6 -6 -6 -6 -6 -7 -7 -7 -7 -6 -6 -7 -7 -7 -7 -8
-5 -5 -5 -5 -5 -6 -5 -5 -5 -5 -5 -5 -5 -6 -5 -6 -6 -6 -6 -6 -6 -6 -6 -6 -6 -7 -7 -7 -6 -6 -6 -6 -6 -6 -6 -6 -6 -7 -7 -7 -7 -6 -6 -6 -7 -7 -6 -7 -7
-5 -5 -5 -6 -5 -6 -6 -5 -5 -5 -5 -5 -5 -6 -5 -5 -6 -6 -6 -6 -5 -6 -6 -6 -6 -7 -7 -6 -6 -7 -7 -7 -6 -6 -6 -7 -7 -7 -7 -7 -7 -6 -6 -6 -6 -6 -6 -6 -7
-5 -5 -5 -5 -4 -5 -6 -6 -6 -5 -6 -6 -6 -6 -6 -6 -5 -5 -6 -6 -6 -6 -6 -7 -7 -7 -7 -6 -7 -7 -7 -7 -7 -7 -7 -7 -7 -7 -7 -7 -7 -6 -7 -7 -6 -7 -7 -7 -8
-5 -5 -4 -5 -5 -6 -6 -6 -6 -5 -6 -6 -6 -6 -6 -6 -5 -6 -6 -6 -6 -6 -7 -7 -7 -7 -7 -7 -7 -7 -8 -7 -7 -7 -7 -7 -7 -7 -7 -7 -6 -7 -7 -7 -7 -7 -7 -7 -8
-5 -5 -5 -5 -5 -4 -5 -5 -5 -6 -6 -6 -6 -6 -7 -6 -5 -6 -6 -6 -7 -7 -7 -7 -8 -8 -7 -7 -7 -8 -8 -8 -7 -7 -7 -7 -7 -7 -7 -7 -6 -6 -7 -7 -7 -7 -7 -8 -8
-5 -5 -5 -4 -4 -4 -4 -5 -5 -5 -6 -6 -5 -5 -7 -6 -6 -6 -6 -7 -6 -6 -7 -7 -8 -8 -7 -7 -7 -8 -8 -8 -7 -7 -7 -7 -6 -7 -6 -6 -6 -6 -7 -8 -8 -8 -8 -8 -8
-5 -5 -5 -4 -4 -6 -4 -5 -5 -6 -6 -6 -6 -5 -6 -6 -6 -6 -7 -7 -7 -7 -7 -8 -8 -8 -7 -7 -7 -8 -8 -8 -8 -8 -7 -7 -7 -7 -7 -6 -6 -6 -7 -8 -8 -8 -8 -8 -9
-4 -4 -4 -4 -5 -5 -5 -6 -6 -6 -6 -7 -7 -7 -6 -7 -6 -6 -6 -7 -7 -7 -6 -7 -7 -7 -7 -7 -7 -8 -8 -8 -8 -8 -7 -7 -7 -7 -6 -6 -6 -6 -7 -7 -7 -8 -8 -8 -9
-4 -4 -4 -4 -4 -5 -4 -5 -5 -6 -6 -6 -6 -6 -7 -6 -6 -6 -6 -6 -6 -6 -6 -6 -7 -7 -7 -7 -7 -8 -8 -8 -8 -7 -7 -7 -7 -7 -7 -7 -7 -7 -7 -7 -8 -8 -8 -9 -9
-4 -4 -4 -4 -4 -5 -5 -5 -5 -5 -6 -6 -6 -6 -6 -6 -6 -6 -6 -6 -6 -6 -6 -6 -7 -7 -7 -6 -7 -7 -8 -8 -8 -7 -7 -7 -7 -7 -7 -7 -7 -7 -7 -7 -7 -7 -8 -8 -8
-3 -2 -4 -5 -4 -5 -5 -5 -5 -5 -5 -6 -6 -6 -6 -6 -6 -5 -6 -6 -6 -6 -6 -6 -6 -6 -6 -7 -7 -7 -7 -7 -7 -7 -7 -7 -7 -7 -7 -7 -7 -7 -7 -7 -7 -7 -8 -8 -8
-4 -3 -4 -5 -5 -5 -5 -5 -5 -5 -5 -5 -5 -5 -5 -5 -6 -6 -6 -6 -6 -6 -6 -6 -5 -6 -6 -6 -7 -7 -6 -7 -8 -7 -7 -7 -7 -7 -6 -6 -7 -7 -8 -7 -7 -8 -7 -8 -8
-4 -4 -5 -5 -5 -5 -5 -5 -4 -4 -5 -5 -5 -5 -5 -5 -6 -5 -6 -6 -5 -6 -6 -6 -5 -5 -6 -6 -6 -6 -6 -6 -6 -7 -7 -7 -7 -6 -6 -6 -6 -6 -6 -7 -7 -7 -7 -7 -7
-5 -5 -4 -5 -5 -6 -5 -5 -5 -5 -5 -5 -5 -5 -6 -6 -6 -5 -5 -5 -4 -5 -5 -6 -6 -5 -6 -5 -6 -6 -6 -7 -6 -7 -7 -7 -6 -7 -6 -6 -6 -7 -7 -7 -6 -7 -7 -7 -7
-6 -5 -5 -5 -5 -4 -5 -5 -5 -5 -5 -5 -5 -5 -6 -6 -6 -5 -5 -5 -5 -5 -5 -6 -6 -5 -6 -6 -6 -7 -6 -6 -6 -6 -7 -7 -8 -7 -6 -6 -6 -6 -6 -6 -6 -6 -7 -7 -8
-6 -6 -5 -5 -5 -5 -5 -5 -5 -5 -4 -4 -5 -4 -4 -5 -5 -5 -5 -5 -5 -5 -4 -4 -5 -6 -5 -5 -6 -6 -6 -6 -6 -6 -6 -6 -7 -7 -7 -6 -6 -6 -6 -6 -6 -6 -6 -6 -7
-6 -6 -6 -6 -5 -6 -6 -6 -5 -6 -5 -4 -4 -4 -5 -4 -4 -5 -4 -4 -5 -5 -5 -5 -5 -5 -5 -5 -5 -6 -6 -6 -6 -6 -7 -6 -6 -7 -7 -7 -6 -6 -6 -6 -6 -6 -5 -6 -6
-6 -7 -6 -5 -6 -5 -5 -5 -6 -6 -5 -6 -4 -4 -4 -4 -4 -4 -4 -4 -5 -5 -5 -5 -5 -5 -5 -6 -6 -6 -6 -6 -6 -6 -7 -7 -7 -7 -6 -7 -7 -7 -6 -6 -6 -6 -6 -6 -5
-6 -7 -6 -5 -6 -4 -5 -6 -5 -5 -6 -6 -5 -4 -4 -3 -4 -4 -5 -5 -5 -5 -5 -5 -5 -5 -5 -5 -5 -6 -6 -6 -6 -6 -7 -7 -7 -7 -7 -7 -7 -7 -7 -7 -7 -6 -6 -7 -6
-6 -7 -7 -7 -6 -6 -5 -5 -5 -5 -5 -6 -7 -6 -5 -4 -4 -4 -4 -5 -5 -5 -5 -5 -5 -5 -6 -6 -6 -6 -6 -6 -6 -7 -6 -7 -7 -7 -7 -7 -7 -7 -7 -7 -7 -7 -7 -7 -6
-7 -7 -8 -7 -5 -6 -6 -5 -5 -4 -5 -5 -6 -5 -5 -5 -4 -5 -5 -5 -5 -5 -5 -5 -5 -6 -6 -6 -6 -6 -6 -6 -6 -6 -7 -7 -7 -6 -7 -7 -7 -7 -7 -7 -7 -7 -7 -7 -7
-7 -6 -7 -7 -6 -5 -7 -4 -5 -4 -3 -4 -5 -6 -5 -5 -5 -5 -6 -6 -5 -5 -5 -5 -5 -6 -6 -5 -6 -6 -7 -6 -7 -6 -6 -6 -7 -6 -7 -7 -7 -7 -8 -8 -8 -7 -7 -7 -7
-7 -7 -7 -7 -7 -6 -7 -5 -6 -5 -4 -4 -5 -6 -6 -6 -6 -6 -7 -7 -6 -6 -6 -6 -7 -7 -6 -6 -7 -7 -7 -7 -7 -7 -7 -7 -7 -7 -7 -7 -7 -7 -7 -7 -7 -7 -7 -8 -7
-8 -7 -8 -8 -7 -7 -8 -7 -6 -6 -5 -4 -4 -5 -6 -6 -6 -6 -6 -6 -6 -7 -6 -7 -8 -6 -7 -6 -7 -7 -6 -7 -7 -8 -7 -7 -7 -7 -7 -7 -7 -7 -7 -7 -7 -8 -7 -7 -7
-9 -8 -8 -8 -8 -8 -7 -7 -6 -6 -5 -5 -5 -4 -5 -5 -6 -7 -6 -7 -6 -7 -7 -7 -8 -8 -7 -7 -7 -7 -7 -8 -7 -7 -8 -7 -7 -7 -7 -8 -8 -7 -7 -7 -7 -7 -7 -7 -7
-9 -8 -8 -9 -8 -8 -8 -7 -7 -7 -6 -6 -6 -5 -5 -5 -6 -7 -7 -7 -7 -6 -7 -7 -8 -8 -8 -8 -8 -8 -8 -8 -8 -8 -8 -8 -8 -8 -8 -8 -7 -8 -8 -7 -8 -8 -7 -7 -6
-9 -9 -9 -8 -9 -9 -9 -8 -8 -8 -7 -7 -7 -7 -6 -6 -6 -6 -6 -8 -8 -7 -7 -7 -7 -7 -7 -7 -8 -8 -8 -8 -8 -8 -8 -8 -8 -8 -8 -8 -8 -8 -7 -7 -7 -7 -7 -7 -7
-10 -9 -9 -9 -9 -9 -9 -8 -8 -8 -8 -7 -7 -7 -7 -6 -6 -6 -7 -7 -7 -6 -7 -7 -8 -8 -8 -8 -9 -9 -8 -8 -8 -7 -9 -8 -9 -9 -9 -9 -8 -8 -8 -8 -8 -8 -8 -9 -8
Height
5891 5892 5893 5894 5897 5895 5896 5899 5900 5902 5904 5905 5906 5907 5908 5908 5911 5912 5910 5910 5910 5908 5907 5906 5906 5906 5906 5907 5907 5907 5907 5906 5906 5906 5905 5905 5904 5905 5904 5904 5904 5904 5904 5902 5901 5901 5901 5900 5899
5892 5892 5896 5897 5899 5898 5898 5899 5901 5904 5906 5906 5908 5909 5909 5910 5911 5910 5911 5912 5912 5911 5909 5909 5908 5909 5909 5910 5910 5910 5909 5908 5908 5909 5908 5907 5907 5907 5906 5906 5906 5906 5905 5904 5903 5904 5904 5904 5903
5895 5896 5898 5899 5900 5901 5903 5902 5904 5908 5909 5909 5908 5911 5910 5911 5912 5911 5912 5913 5913 5912 5911 5911 5911 5912 5912 5913 5912 5912 5911 5910 5910 5910 5909 5909 5909 5909 5909 5908 5909 5908 5907 5907 5907 5907 5907 5906 5905
5892 5901 5901 5902 5902 5902 5906 5907 5907 5909 5911 5911 5911 5912 5914 5914 5914 5913 5914 5914 5914 5913 5913 5913 5913 5914 5915 5915 5914 5913 5913 5913 5912 5912 5912 5911 5911 5911 5912 5911 5911 5911 5910 5911 5911 5911 5910 5909 5909
5898 5902 5903 5903 5904 5906 5909 5910 5910 5911 5913 5914 5915 5915 5916 5917 5917 5916 5916 5917 5917 5916 5916 5915 5915 5916 5917 5916 5916 5916 5915 5915 5914 5915 5914 5914 5913 5914 5915 5915 5914 5914 5914 5914 5914 5914 5915 5913 5912
5901 5903 5905 5907 5908 5909 5910 5911 5911 5913 5915 5916 5916 5918 5918 5920 5919 5919 5920 5920 5919 5918 5917 5916 5916 5918 5919 5918 5917 5916 5917 5917 5917 5916 5916 5916 5916 5917 5917 5918 5918 5917 5916 5916 5917 5918 5917 5916 5917
5904 5904 5906 5908 5911 5912 5912 5914 5914 5914 5916 5917 5918 5918 5921 5922 5922 5921 5922 5922 5921 5920 5919 5918 5919 5920 5920 5920 5918 5918 5919 5919 5919 5919 5919 5920 5921 5921 5921 5921 5921 5921 5920 5921 5921 5922 5922 5922 5922
5907 5908 5909 5910 5912 5913 5912 5914 5916 5917 5918 5919 5921 5919 5921 5923 5924 5923 5923 5922 5921 5921 5920 5920 5921 5922 5922 5921 5920 5920 5921 5922 5922 5923 5924 5925 5925 5925 5925 5925 5924 5923 5923 5926 5926 5926 5926 5926 5926
5908 5910 5912 5913 5914 5914 5915 5915 5917 5919 5921 5921 5922 5922 5922 5924 5924 5923 5923 5923 5922 5921 5921 5922 5922 5923 5924 5924 5923 5923 5924 5925 5926 5926 5927 5929 5930 5929 5929 5927 5927 5927 5927 5928 5928 5928 5929 5930 5929
5913 5914 5913 5916 5917 5916 5917 5917 5918 5920 5921 5921 5923 5923 5923 5925 5925 5925 5924 5923 5922 5922 5922 5923 5924 5926 5926 5927 5926 5926 5926 5927 5928 5928 5929 5931 5933 5933 5931 5931 5932 5931 5931 5930 5931 5932 5933 5933 5932
5912 5915 5917 5918 5917 5920 5918 5918 5920 5921 5921 5923 5924 5923 5923 5925 5926 5926 5925 5925 5925 5924 5925 5926 5927 5927 5928 5928 5929 5929 5928 5929 5930 5930 5931 5932 5934 5934 5935 5935 5936 5935 5934 5933 5932 5933 5934 5934 5934
5912 5916 5916 5919 5920 5922 5922 5922 5922 5923 5923 5925 5924 5925 5924 5923 5924 5926 5926 5926 5927 5927 5927 5928 5929 5929 5930 5930 5931 5931 5931 5932 5932 5932 5933 5935 5935 5935 5936 5937 5938 5937 5935 5935 5935 5935 5935 5935 5933
5914 5917 5918 5921 5921 5923 5924 5925 5926 5926 5925 5926 5925 5925 5924 5924 5924 5925 5926 5926 5927 5928 5930 5931 5931 5932 5933 5933 5933 5933 5933 5934 5934 5934 5936 5936 5937 5937 5937 5939 5940 5939 5937 5936 5937 5938 5937 5935 5934
5915 5918 5918 5921 5924 5927 5925 5927 5927 5927 5927 5927 5927 5926 5926 5926 5926 5925 5925 5925 5927 5929 5931 5931 5933 5934 5934 5934 5935 5935 5936 5937 5937 5937 5937 5938 5939 5939 5938 5939 5940 5940 5938 5938 5938 5939 5937 5937 5937
5920 5919 5919 5921 5924 5926 5926 5927 5926 5927 5926 5926 5927 5927 5926 5927 5927 5927 5927 5925 5927 5930 5933 5932 5933 5936 5936 5936 5936 5938 5937 5939 5939 5941 5939 5939 5940 5941 5940 5940 5943 5942 5938 5938 5938 5937 5936 5936 5937
5920 5922 5922 5924 5923 5925 5925 5925 5926 5927 5927 5927 5927 5926 5926 5928 5927 5927 5929 5927 5928 5931 5934 5935 5935 5936 5937 5938 5937 5938 5939 5939 5940 5941 5941 5941 5941 5941 5942 5943 5944 5943 5941 5940 5940 5939 5939 5938 5937
5923 5924 5923 5925 5925 5924 5925 5926 5927 5928 5928 5928 5928 5928 5927 5929 5931 5930 5930 5929 5930 5933 5935 5937 5937 5939 5939 5940 5940 5939 5939 5939 5939 5940 5941 5941 5940 5940 5940 5941 5942 5942 5941 5942 5942 5940 5939 5938 5937
5923 5924 5923 5924 5927 5927 5925 5925 5927 5928 5929 5927 5927 5927 5928 5930 5931 5933 5932 5932 5932 5934 5936 5938 5939 5939 5941 5942 5942 5942 5940 5939 5939 5938 5938 5940 5941 5941 5940 5938 5938 5937 5938 5938 5940 5941 5941 5940 5937
5920 5922 5924 5925 5926 5928 5927 5928 5925 5926 5928 5928 5925 5926 5928 5930 5931 5931 5932 5932 5934 5934 5936 5939 5940 5941 5940 5939 5940 5940 5941 5941 5939 5937 5937 5938 5939 5940 5940 5938 5937 5936 5934 5935 5934 5934 5936 5937 5937
5921 5922 5923 5925 5924 5926 5925 5926 5929 5924 5926 5926 5928 5929 5930 5929 5929 5930 5930 5933 5932 5934 5934 5936 5937 5937 5940 5940 5939 5939 5939 5938 5937 5936 5937 5936 5936 5937 5937 5937 5935 5934 5934 5932 5933 5931 5932 5933 5933
5919 5920 5922 5924 5925 5925 5926 5927 5928 5925 5927 5928 5929 5929 5929 5928 5927 5929 5931 5931 5932 5933 5934 5935 5936 5937 5935 5934 5937 5938 5936 5936 5936 5935 5935 5936 5934 5932 5932 5932 5933 5932 5931 5930 5930 5931 5929 5928 5928
5920 5920 5922 5924 5925 5923 5923 5925 5923 5926 5927 5927 5928 5928 5928 5928 5927 5927 5930 5931 5930 5930 5930 5931 5933 5934 5935 5934 5933 5933 5934 5933 5934 5932 5933 5933 5931 5930 5929 5928 5928 5927 5928 5928 5927 5927 5927 5926 5924
5918 5918 5919 5920 5922 5923 5922 5921 5921 5921 5924 5925 5925 5924 5925 5924 5924 5925 5926 5929 5930 5929 5928 5927 5927 5929 5930 5930 5929 5929 5928 5928 5928 5927 5928 5928 5926 5926 5925 5925 5925 5923 5923 5923 5922 5923 5923 5923 5921
5914 5914 5915 5916 5917 5921 5917 5919 5923 5920 5921 5922 5922 5922 5923 5923 5923 5923 5924 5925 5926 5925 5924 5924 5925 5924 5924 5924 5923 5923 5924 5925 5925 5925 5923 5922 5923 5921 5921 5921 5921 5920 5918 5917 5916 5916 5913 5917 5916
5909 5910 5910 5912 5912 5916 5913 5914 5918 5917 5918 5920 5918 5919 5922 5922 5922 5921 5921 5919 5921 5919 5919 5919 5920 5919 5918 5918 5918 5919 5919 5920 5920 5919 5920 5918 5918 5918 5917 5916 5915 5914 5913 5912 5911 5910 5910 5910 5910
5905 5906 5906 5905 5908 5909 5908 5909 5914 5913 5914 5917 5917 5917 5918 5918 5918 5918 5918 5916 5914 5913 5912 5911 5911 5912 5912 5912 5913 5912 5914 5913 5915 5914 5914 5914 5914 5913 5913 5912 5911 5909 5908 5906 5905 5904 5903 5902 5903
5906 5903 5907 5903 5903 5903 5903 5905 5905 5908 5908 5910 5913 5913 5913 5914 5915 5916 5914 5914 5912 5909 5908 5905 5905 5906 5908 5908 5906 5907 5907 5907 5909 5908 5907 5906 5906 5906 5905 5905 5905 5904 5903 5901 5898 5897 5896 5895 5894
5897 5903 5901 5899 5898 5898 5898 5900 5899 5902 5903 5905 5906 5908 5910 5910 5909 5908 5907 5906 5907 5906 5904 5903 5900 5901 5901 5898 5896 5898 5899 5899 5901 5900 5899 5897 5898 5898 5897 5896 5896 5896 5894 5893 5891 5889 5888 5886 5885
5893 5894 5894 5895 5894 5893 5893 5894 5896 5896 5898 5899 5899 5899 5899 5899 5900 5899 5896 5894 5897 5899 5898 5894 5892 5891 5888 5884 5886 5888 5888 5889 5890 5890 5889 5887 5886 5886 5886 5885 5886 5884 5884 5883 5882 5878 5878 5877 5875
5887 5887 5887 5886 5889 5888 5887 5888 5890 5888 5889 5891 5893 5893 5892 5892 5893 5890 5881 5871 5883 5879 5879 5869 5877 5879 5880 5879 5880 5880 5880 5880 5881 5873 5873 5878 5878 5878 5875 5875 5875 5874 5872 5871 5870 5867 5866 5866 5866
Wind_Speed
16 11 17 14 11 16 17 18 18 17 18 15 13 11 13 15 10 13 14 11 11 12 11 10 11 12 12 11 10 9 9 9 9 8 8 9 11 12 13 15 15 14 14 16 17 20 21 22 24
12 15 21 14 13 14 19 19 22 18 16 12 13 10 13 13 11 12 14 11 12 12 12 11 12 12 12 10 9 9 8 8 7 6 7 9 11 13 14 15 14 14 15 15 19 21 22 23 26
19 20 16 15 18 16 16 20 21 18 15 12 15 10 13 11 10 14 13 13 11 12 12 11 11 10 9 9 10 8 7 8 7 6 7 9 11 12 13 15 13 13 14 16 19 21 21 24 28
16 14 15 15 18 21 18 18 22 19 15 12 13 14 9 10 10 14 12 11 9 11 11 10 9 8 8 10 9 8 8 7 6 6 7 10 12 12 12 12 13 13 13 16 19 19 20 26 28
19 13 13 23 25 24 20 15 16 17 15 13 10 11 11 7 9 12 12 8 7 10 9 8 8 7 8 9 10 9 9 8 7 7 9 11 13 12 11 11 13 12 14 16 19 20 24 27 28
17 19 19 18 21 23 18 16 14 15 13 11 9 9 10 4 7 10 9 7 7 8 7 6 6 6 7 8 8 11 10 9 8 9 10 11 11 11 11 11 12 12 14 16 18 20 22 25 25
18 20 17 17 15 13 15 14 15 14 12 9 10 13 9 2 6 8 6 7 6 6 5 4 5 6 5 6 8 11 10 8 8 9 10 10 10 10 10 11 11 12 12 16 17 19 20 22 22
20 20 17 16 19 12 14 15 12 11 11 8 7 10 10 3 5 5 6 6 6 6 4 2 3 6 4 5 7 10 10 9 8 8 8 9 10 9 10 10 11 13 16 17 18 18 17 17 17
18 16 14 11 16 13 12 13 15 12 10 11 7 6 8 4 4 6 6 6 6 5 6 3 5 8 5 5 8 11 10 10 10 10 10 9 11 11 10 8 12 13 17 18 16 14 14 13 15
15 16 16 12 16 15 16 18 16 16 13 11 10 6 6 5 5 6 7 7 5 5 7 10 12 9 6 8 9 12 10 11 11 11 11 10 11 11 9 9 13 15 16 16 16 14 13 10 11
17 14 13 11 17 14 15 14 14 14 11 9 7 7 5 5 5 7 7 7 7 13 11 13 11 9 9 11 8 11 11 11 11 11 12 12 12 10 9 9 14 14 14 14 14 13 10 7 7
19 17 15 13 16 13 12 12 11 11 12 9 9 6 6 4 5 7 8 6 5 10 10 11 9 9 9 12 11 10 10 10 13 11 11 11 10 10 9 8 10 12 11 10 11 12 10 7 3
16 15 17 10 16 12 12 12 8 7 7 10 7 8 7 7 4 6 7 5 6 8 9 8 8 7 9 11 13 10 8 8 10 13 12 8 9 8 8 8 10 8 8 7 7 7 5 9 4
10 13 15 11 14 15 12 10 11 9 7 8 7 7 9 8 6 7 9 5 5 8 10 6 7 7 8 10 11 9 7 6 6 7 6 8 5 6 7 6 8 7 5 4 3 3 3 2 3
8 9 10 11 7 9 11 8 9 10 8 7 8 7 11 7 3 8 10 4 9 8 11 9 8 9 8 7 7 5 6 8 7 6 2 2 2 2 3 4 5 3 3 5 4 3 3 3 1
9 4 9 10 11 9 6 8 5 6 8 9 8 8 8 6 2 6 9 6 9 12 11 9 7 8 8 6 6 7 8 3 3 4 3 1 1 3 5 6 4 3 6 6 4 3 4 5 4
5 1 6 8 8 9 12 11 7 6 7 11 11 12 9 6 4 2 8 9 8 9 7 9 8 8 8 5 6 3 4 7 8 5 3 4 4 5 4 6 8 6 8 6 8 6 5 6 8
14 8 7 6 7 11 14 14 12 8 6 6 7 9 12 10 8 4 4 9 8 5 6 7 9 7 6 6 3 3 1 3 2 1 1 2 3 8 9 7 7 9 8 8 9 7 8 8 11
24 2 5 6 5 5 8 7 14 14 12 7 5 1 5 11 10 9 6 7 7 8 6 6 5 5 5 4 5 5 4 6 7 5 5 4 3 5 7 10 9 9 12 10 7 9 9 9 10
6 5 8 9 15 4 8 16 4 9 11 8 6 4 3 4 5 4 4 3 5 6 6 4 6 6 5 7 6 6 6 8 9 10 10 10 9 10 10 10 14 14 12 14 15 15 13 14 11
4 3 3 8 4 4 7 8 7 11 12 9 4 1 2 3 4 4 1 3 4 5 5 6 7 7 6 6 9 8 9 10 12 12 10 13 14 15 16 15 15 15 15 15 17 17 18 17 17
9 6 5 6 1 9 4 4 5 3 5 6 6 4 2 1 1 1 1 4 4 4 5 4 3 4 6 8 7 11 12 11 12 17 13 14 16 17 19 17 18 17 16 17 19 18 23 22 22
7 9 11 13 7 4 7 10 9 9 3 2 3 7 9 9 9 5 4 6 4 4 8 7 8 8 10 13 17 11 15 15 12 12 13 15 19 20 20 20 23 25 23 24 25 29 30 25 22
13 16 17 16 13 10 16 17 9 16 10 6 3 4 6 6 9 10 9 10 12 12 14 16 14 14 15 16 18 18 13 14 15 14 11 13 16 21 21 20 21 21 25 28 28 29 26 22 21
17 18 21 24 23 21 21 23 12 15 15 12 12 12 13 15 13 13 9 14 18 17 18 19 17 18 18 20 16 15 15 17 15 15 16 19 18 20 19 23 23 24 23 23 22 23 23 22 25
25 25 23 29 31 26 26 24 18 18 18 16 16 15 17 16 17 19 25 22 22 19 22 21 17 20 21 21 24 22 21 18 19 21 22 23 24 24 25 25 24 21 24 27 27 26 26 26 29
31 32 25 27 31 32 31 30 28 26 26 25 21 22 21 21 23 21 23 18 24 20 26 21 17 16 19 23 22 23 22 22 26 28 26 27 29 28 28 28 31 32 31 33 32 34 32 34 31
35 27 24 29 25 26 32 33 37 35 32 28 26 22 24 26 25 26 27 23 20 23 21 20 22 22 22 26 24 27 26 27 31 33 32 32 33 34 34 35 36 38 38 37 40 38 38 39 39
36 27 31 29 27 28 28 29 28 33 37 35 30 29 26 30 32 35 41 32 25 22 24 26 27 25 27 25 25 25 28 31 34 35 38 37 38 37 39 41 38 43 42 42 42 41 42 41 39
29 29 31 32 26 28 32 34 29 34 36 37 37 34 35 33 37 44 47 33 22 30 37 26 26 25 26 31 33 34 35 37 38 43 31 44 47 44 44 41 44 44 44 45 37 30 31 30 34
Wind_Direction
136 143 153 119 130 133 128 120 113 104 119 124 116 111 114 103 98 95 86 86 83 76 74 81 84 95 99 91 73 58 46 45 47 56 73 89 96 98 98 100 97 93 91 85 85 87 87 84 75
125 129 134 127 110 119 135 125 119 127 125 128 122 105 102 106 108 103 99 86 74 71 77 81 89 100 94 82 65 48 45 52 65 76 90 94 100 102 105 104 104 101 95 91 94 95 92 86 77
136 129 126 134 119 100 111 112 103 124 120 115 123 117 114 117 118 99 96 82 68 68 73 80 94 99 84 67 55 54 57 62 74 92 104 108 110 110 110 108 105 99 95 97 97 96 93 88 77
128 124 132 140 119 111 119 118 114 120 129 119 124 125 128 124 119 94 83 76 74 75 77 84 102 104 83 63 48 49 56 60 68 103 120 121 121 116 112 111 103 94 94 94 92 87 83 74 70
117 131 129 119 121 115 120 112 103 107 109 119 126 117 108 108 98 86 81 72 80 86 89 93 105 94 78 55 50 57 58 70 87 109 125 129 126 121 113 107 96 90 88 95 94 89 82 77 74
121 126 125 118 116 117 127 120 118 113 122 121 121 105 87 96 89 79 69 67 65 71 90 92 100 97 71 53 54 69 74 80 96 116 123 131 129 122 112 96 87 89 95 99 96 90 89 86 81
135 120 114 111 94 125 135 131 135 135 135 129 139 108 94 57 60 66 66 51 56 54 59 85 111 106 83 56 73 91 91 90 103 114 120 118 106 108 103 95 83 77 83 85 89 82 74 81 81
129 107 108 106 103 115 123 138 119 130 124 111 120 110 122 113 56 47 48 53 50 35 21 78 152 126 97 44 83 104 102 100 87 86 92 89 88 93 96 91 87 89 84 79 80 87 87 85 87
130 115 118 92 93 105 123 120 121 123 107 97 90 73 99 106 44 38 42 37 42 36 9 31 155 143 81 61 97 96 92 84 83 79 77 75 75 81 87 97 86 83 85 86 87 87 86 89 84
135 141 116 112 107 109 113 117 120 132 130 122 118 114 88 86 62 43 40 41 47 37 83 123 130 119 96 92 98 107 113 102 103 101 97 88 67 66 71 75 73 81 81 77 80 77 81 80 86
153 113 109 101 102 118 123 127 132 132 122 121 117 131 119 105 88 71 58 53 77 100 102 119 122 121 108 98 102 116 115 115 105 103 106 98 85 73 66 67 78 77 74 76 85 73 69 83 71
128 127 113 115 104 119 121 123 118 120 125 123 115 111 113 106 90 77 67 69 105 112 110 110 114 101 97 116 120 125 122 119 113 115 112 104 104 100 85 82 82 85 74 72 76 61 44 64 55
135 135 122 108 107 119 120 111 115 118 112 115 121 119 124 131 120 84 72 63 137 127 108 105 108 105 106 121 120 128 125 115 124 121 108 105 102 106 97 83 75 51 64 62 48 97 36 5 323
141 126 121 117 110 131 129 139 143 137 130 122 127 130 124 120 127 97 77 75 153 151 144 130 122 127 119 126 119 126 114 112 127 123 119 119 125 136 120 98 94 123 105 66 38 30 32 351 342
137 146 112 101 101 114 130 142 133 144 139 128 131 139 132 114 77 78 68 113 150 160 149 155 138 132 138 152 129 153 136 120 130 129 52 106 91 23 144 81 105 150 187 164 176 242 290 300 116
81 128 131 135 139 126 81 132 136 149 146 144 149 136 136 136 96 71 79 124 156 154 146 148 156 141 135 136 135 144 140 148 163 173 149 175 4 344 333 332 311 202 196 230 245 244 264 296 285
172 207 140 135 117 106 98 96 109 118 146 153 159 152 142 160 187 139 98 122 145 155 170 158 168 140 134 127 118 131 149 178 173 179 229 255 269 270 283 294 314 324 306 288 280 283 267 259 265
197 107 97 98 102 101 120 113 95 74 75 112 175 159 147 161 172 163 129 121 129 135 145 152 150 153 135 135 151 190 229 331 300 189 191 269 288 288 295 294 305 305 311 319 327 316 281 257 247
199 57 349 334 205 18 80 59 93 77 58 65 66 99 181 164 171 161 162 142 140 149 166 181 206 221 212 220 233 261 260 257 271 280 275 263 269 291 302 306 315 315 315 312 313 312 314 305 281
52 11 352 10 352 358 46 69 44 49 65 37 44 85 142 155 153 155 163 167 168 185 185 198 233 243 270 261 251 246 253 254 260 263 262 269 265 273 259 281 293 299 300 308 316 312 309 309 302
164 302 321 320 19 106 106 83 79 80 68 44 12 11 51 30 67 99 203 213 209 219 233 227 238 260 257 252 272 262 244 253 263 266 274 273 272 279 292 292 281 289 294 301 299 300 302 302 302
232 233 292 313 112 131 46 24 6 82 117 88 343 279 242 311 326 93 212 231 208 238 244 253 253 254 270 271 281 275 267 262 276 266 261 273 279 278 280 287 285 288 292 299 293 300 296 293 295
233 264 268 272 268 258 270 266 295 283 236 285 301 293 267 274 271 246 230 259 262 247 256 235 246 260 268 278 261 290 246 251 265 312 251 265 277 286 291 291 291 292 295 291 291 299 292 279 280
264 261 266 280 279 260 273 257 271 263 236 231 277 326 273 278 275 260 257 249 246 231 248 264 261 267 274 281 272 262 242 242 268 276 267 269 286 289 285 289 290 293 296 298 291 289 285 265 282
247 269 274 265 265 272 279 266 255 247 248 243 232 237 264 269 281 248 228 243 255 249 255 255 256 261 263 272 258 258 235 247 255 262 265 272 279 279 280 290 285 284 288 299 300 297 299 287 282
246 232 246 266 271 270 269 272 241 245 244 236 253 251 255 268 277 249 235 239 252 241 247 249 246 252 262 260 243 252 242 247 254 262 268 274 276 271 281 284 293 286 280 294 290 292 293 288 284
230 239 244 247 252 253 254 256 261 256 261 262 246 246 252 262 264 265 266 251 231 232 243 247 238 247 244 260 249 247 253 254 262 266 268 268 276 278 282 286 289 284 281 288 285 285 287 283 279
246 241 248 244 254 249 247 251 258 261 264 256 259 262 265 257 255 264 261 246 235 238 249 249 253 258 251 251 256 257 258 262 264 266 262 266 268 271 276 282 283 281 280 284 280 282 281 282 276
247 252 244 247 248 258 260 259 260 262 262 267 268 266 267 263 253 260 255 246 241 247 242 247 244 243 246 256 264 265 269 268 271 272 274 270 268 270 275 280 280 282 275 284 276 273 277 281 274
248 243 246 245 245 249 251 261 255 261 265 267 268 268 273 274 267 257 257 227 244 253 252 256 272 287 280 283 291 288 284 283 283 276 275 281 282 281 279 279 281 284 281 282 281 280 275 267 272